Torna al catalogo

HULIANWANG DIGUI-26

AttivoComunicazioniPO
NORAD 63693·PAYLOAD·🇨🇳 China

Lanciato Apr 28, 2025 da Wenchang Space Launch Site

Loading…

Prossimi Passaggi (prossime 24 ore)

TLE

AggiornatoSource: Space-Track

Epoca: Sep 14, 2026, 13:43 UTC

1 63693U 25086G   26257.57209043  .00000051  00000-0  85352-4 0  9993
2 63693  86.5020 283.1196 0002045  74.8596 285.2764 13.24412720 66697

Traccia HULIANWANG DIGUI-26 in tempo reale con AllMySat

Download on the App Store